Weather History for Brevoort Island, NU

Change the Weather History Date:

Friday, July 12, 2013

  Actual Average Record
Temperature  
Mean Temperature 32 °F -  
Max Temperature 35 °F - - ()
Min Temperature 28 °F - - ()
Degree Days  
Heating Degree Days 34    
Moisture  
Dew Point -    
Average Humidity    
Maximum Humidity    
Minimum Humidity    
Precipitation  
Precipitation 0.00 in - - ()
Sea Level Pressure  
Sea Level Pressure 29.13 in    
Wind  
Wind Speed 14 mph ()    
Max Wind Speed 26 mph    
Max Gust Speed 31 mph    
T = Trace of Precipitation, MM = Missing Value Source: Averaged Metar Reports

Daily Weather History Graph

Daily Weather History Graph

Search for Another Location

Airport:

Trip Planner

Search our weather history database for the weather conditions in past years. The results will help you decide how hot, cold, wet, or windy it might be!

Date:

Astronomy

Jul. 12, 2013 Rise Set
Actual Time 3:34 AM ADT 11:07 PM ADT
Civil Twilight 1:54 AM ADT 12:49 AM ADT
Nautical Twilight Sun does not rise Sun does not rise
Astronomical Twilight Sun does not rise Sun does not rise
Moon 9:49 AM ADT (7/12) 11:03 PM ADT (7/12)
Length of Visible Light 22h 55m
Length of Day
19h 32m
Waxing Crescent, 17% of the Moon is Illuminated
Jul 12
Waxing Crescent
Jul 16
First Quarter
Jul 22
Full
Jul 29
Last Quarter
Aug 6
New

Hourly Weather History & Observations

Time (ADT) Temp. Windchill Dew Point Humidity Pressure Visibility Wind Dir Wind Speed Gust Speed Precip Events Conditions
12:00 AM 32.0 °F 19.2 °F - N/A% 29.12 in - East 23.0 mph - N/A Rain Light Rain
12:01 AM 32.0 °F 19.2 °F - N/A% 29.01 in - East 23.0 mph - N/A Rain Light Rain
12:47 AM 32.0 °F 19.5 °F - N/A% 28.98 in - ENE 21.9 mph - N/A Rain Light Rain
1:00 AM 32.0 °F 20.1 °F - N/A% 29.09 in - ENE 19.6 mph - N/A Rain Light Rain
1:38 AM 32.0 °F 20.1 °F - N/A% 28.97 in - NE 19.6 mph - N/A   Clear
1:42 AM 30.2 °F 18.5 °F - N/A% 28.98 in - ENE 17.3 mph - N/A Rain Light Freezing Rain
2:00 AM 30.2 °F 17.4 °F - N/A% 29.08 in - NE 20.7 mph - N/A Rain Light Freezing Rain
2:03 AM 30.2 °F 17.8 °F - N/A% 28.97 in - NE 19.6 mph - N/A Snow Light Snow
2:12 AM 32.0 °F 19.8 °F - N/A% 28.97 in - NE 20.7 mph - N/A   Clear
2:24 AM 32.0 °F 20.8 °F - N/A% 28.97 in - NE 17.3 mph 24.2 mph N/A Snow Light Snow
2:26 AM 32.0 °F 20.5 °F - N/A% 28.97 in - NE 18.4 mph - N/A Snow Light Snow
3:00 AM 32 °F - - % 29.08 in - NE 19.6 mph - -  
3:00 AM 32.0 °F 20.5 °F - N/A% 29.08 in - NE 18.4 mph - N/A Snow Light Snow
3:07 AM 32.0 °F 20.5 °F - N/A% 28.98 in - NNE 18.4 mph - N/A Rain Light Rain
3:43 AM 32.0 °F 20.5 °F - N/A% 28.99 in - North 18.4 mph - N/A   Clear
3:49 AM 32.0 °F 20.5 °F - N/A% 28.99 in - North 18.4 mph - N/A Rain Light Rain
4:00 AM 32.0 °F 22.1 °F - N/A% 29.09 in - North 13.8 mph - N/A Rain Light Rain
5:00 AM 32.0 °F 18.6 °F - N/A% 29.09 in - North 25.3 mph - N/A Rain Light Rain
5:01 AM 32.0 °F 18.6 °F - N/A% 28.98 in - North 25.3 mph - N/A   Clear
5:48 AM 32.0 °F 21.6 °F - N/A% 29.00 in - NNW 15.0 mph - N/A   Clear
6:00 AM 32.0 °F 22.5 °F - N/A% 29.11 in - NNW 12.7 mph - N/A   Clear
6:24 AM 32.0 °F 24.2 °F - N/A% 29.02 in - NW 9.2 mph - N/A Snow Light Snow
6:25 AM 32.0 °F 24.2 °F - N/A% 29.02 in - NNW 9.2 mph - N/A   Clear
6:26 AM 32.0 °F 24.2 °F - N/A% 29.02 in - NNW 9.2 mph - N/A Snow Light Snow
6:33 AM 32.0 °F 23.6 °F - N/A% 29.02 in - NW 10.4 mph - N/A   Clear
7:00 AM 32.0 °F 25.6 °F - N/A% 29.13 in - WNW 6.9 mph - N/A   Clear
8:00 AM 33.8 °F 28.6 °F - N/A% 29.13 in - WNW 5.8 mph - N/A   Clear
8:57 AM 33.8 °F 29.6 °F - N/A% 29.04 in - West 4.6 mph - N/A   Overcast
9:00 AM 33 °F - - % 29.15 in - West 5.8 mph - -   Overcast
9:00 AM 33.8 °F 28.6 °F - N/A% 29.15 in - West 5.8 mph - N/A   Overcast
9:12 AM 33.8 °F 29.6 °F - N/A% 29.04 in - West 4.6 mph - N/A   Overcast
9:19 AM 33.8 °F 29.6 °F - N/A% 29.04 in - WNW 4.6 mph - N/A   Overcast
9:20 AM 33.8 °F 29.6 °F - N/A% 29.04 in - WNW 4.6 mph - N/A   Overcast
9:31 AM 33.8 °F 27.7 °F - N/A% 29.04 in - West 6.9 mph - N/A   Overcast
9:33 AM 33.8 °F 29.6 °F - N/A% 29.04 in - WSW 4.6 mph - N/A   Overcast
9:55 AM 33.8 °F 27.7 °F - N/A% 29.05 in - West 6.9 mph - N/A   Mostly Cloudy
10:00 AM 33.8 °F 27.0 °F - N/A% 29.16 in - West 8.1 mph - N/A   Overcast
11:00 AM 35.6 °F 29.9 °F - N/A% 29.17 in - West 6.9 mph - N/A   Overcast
12:00 PM 35.6 °F 29.9 °F - N/A% 29.18 in - WSW 6.9 mph - N/A   Clear
12:46 PM 35.6 °F 31.7 °F - N/A% 29.08 in - WSW 4.6 mph - N/A Rain Light Rain
1:00 PM 35.6 °F 31.7 °F - N/A% 29.19 in - WSW 4.6 mph - N/A Rain Light Rain
2:00 PM 35.6 °F 30.7 °F - N/A% 29.21 in - West 5.8 mph - N/A Rain Rain
3:00 PM 35.6 °F - - N/A% 29.22 in - WSW 2.3 mph - N/A Rain Light Rain
4:00 PM 33.8 °F 29.6 °F - N/A% 29.24 in - NE 4.6 mph - N/A   Clear
4:30 PM 33.8 °F 28.6 °F - N/A% 29.15 in - NNE 5.8 mph - N/A   Overcast
4:36 PM 33.8 °F 28.6 °F - N/A% 29.15 in - North 5.8 mph - N/A Rain Light Rain
4:50 PM 33.8 °F 27.0 °F - N/A% 29.16 in - NNE 8.1 mph - N/A   Overcast
5:00 PM 33.8 °F 26.4 °F - N/A% 29.27 in - North 9.2 mph - N/A   Overcast
5:12 PM 33.8 °F 25.3 °F - N/A% 29.16 in - North 11.5 mph - N/A   Unknown
5:19 PM 33.8 °F 25.3 °F - N/A% 29.17 in - North 11.5 mph - N/A Snow Light Snow
6:00 PM 33.8 °F 25.3 °F - N/A% 29.28 in - North 11.5 mph - N/A   Unknown
6:20 PM 33.8 °F 24.3 °F - N/A% 29.18 in - North 13.8 mph - N/A   Overcast
6:22 PM 33.8 °F 24.3 °F - N/A% 29.18 in - North 13.8 mph - N/A   Overcast
6:29 PM 33.8 °F 23.9 °F - N/A% 29.18 in - North 15.0 mph - N/A   Mostly Cloudy
6:32 PM 33.8 °F 23.5 °F - N/A% 29.18 in - North 16.1 mph - N/A   Overcast
6:37 PM 33.8 °F 24.8 °F - N/A% 29.19 in - North 12.7 mph - N/A Snow Light Snow
6:54 PM 33.8 °F 24.8 °F - N/A% 29.19 in - North 12.7 mph - N/A   Overcast
7:00 PM 33.8 °F 24.8 °F - N/A% 29.30 in - North 12.7 mph - N/A   Overcast
7:05 PM 33.8 °F 24.8 °F - N/A% 29.20 in - North 12.7 mph - N/A   Overcast
7:27 PM 33.8 °F 26.4 °F - N/A% 29.21 in - North 9.2 mph - N/A   Overcast
8:00 PM 33.8 °F 27.0 °F - N/A% 29.34 in - NW 8.1 mph - N/A   Overcast
8:44 PM 32.0 °F 21.2 °F - N/A% 29.23 in - North 16.1 mph - N/A   Mostly Cloudy
8:46 PM 32.0 °F 21.2 °F - N/A% 29.23 in - North 16.1 mph - N/A   Overcast
8:48 PM 32.0 °F 21.2 °F - N/A% 29.23 in - North 16.1 mph - N/A Snow Light Snow
9:00 PM 33 °F - - % 29.34 in - North 19.6 mph - -   Overcast
9:00 PM 32.0 °F 19.8 °F - N/A% 29.34 in - North 20.7 mph - N/A Snow Light Snow
10:00 PM 32.0 °F 21.6 °F - N/A% 29.37 in - North 15.0 mph - N/A Snow Light Snow
10:17 PM 32.0 °F 20.5 °F - N/A% 29.26 in - North 18.4 mph - N/A Snow Light Snow
10:57 PM 30.2 °F 17.1 °F - N/A% 29.28 in - North 21.9 mph - N/A   Clear
11:00 PM 30.2 °F 17.8 °F - N/A% 29.39 in - North 19.6 mph - N/A   Clear
11:29 PM 28.4 °F 13.5 °F - N/A% 29.28 in - NNE 26.5 mph - N/A Snow Light Snow
11:47 PM 28.4 °F 13.8 °F - N/A% 29.29 in - NNE 25.3 mph 31.1 mph N/A   Clear